Weather History for Walla Walla, WA

Change the Weather History Date:

Tuesday, July 9, 2013

  Actual Average Record
Temperature  
Mean Temperature 80 °F -  
Max Temperature 98 °F 88 °F 113 °F (1975)
Min Temperature 64 °F 60 °F 52 °F (1963)
Cooling Degree Days 16    
Growing Degree Days 30 (Base 50)    
Moisture  
Dew Point 42 °F    
Average Humidity 30    
Maximum Humidity 50    
Minimum Humidity 10    
Precipitation  
Precipitation 0.00 in - - ()
Sea Level Pressure  
Sea Level Pressure 29.99 in    
Wind  
Wind Speed 6 mph (SE)    
Max Wind Speed 12 mph    
Max Gust Speed -    
Visibility 10 miles    
Events      
Averages and records for this station are not official NWS values.
T = Trace of Precipitation, MM = Missing Value Source: NWS Daily Summary

Daily Weather History Graph

Daily Weather History Graph

Search for Another Location

Airport:

Trip Planner

Search our weather history database for the weather conditions in past years. The results will help you decide how hot, cold, wet, or windy it might be!

Date:

Astronomy

Jul. 09, 2013 Rise Set
Actual Time 5:11 AM PDT 8:44 PM PDT
Civil Twilight 4:34 AM PDT 9:22 PM PDT
Nautical Twilight 3:43 AM PDT 10:12 PM PDT
Astronomical Twilight 2:37 AM PDT 11:18 PM PDT
Moon 6:48 AM PDT (7/9) 9:15 PM PDT (7/9)
Length of Visible Light 16h 48m
Length of Day
15h 32m
New Moon, 2% of the Moon is Illuminated
Jul 9
New Moon
Jul 15
First Quarter
Jul 22
Full
Jul 29
Last Quarter
Aug 6
New

Hourly Weather History & Observations

Time (PDT) Temp. Dew Point Humidity Pressure Visibility Wind Dir Wind Speed Gust Speed Precip Events Conditions
12:53 AM 66.0 °F 45.0 °F 47% 30.01 in 10.0 mi ENE 6.9 mph - N/A   Clear
1:53 AM 66.0 °F 45.0 °F 47% 30.01 in 10.0 mi ENE 3.5 mph - N/A   Clear
2:53 AM 66.9 °F 45.0 °F 45% 30.00 in 10.0 mi East 5.8 mph - N/A   Clear
3:53 AM 64.9 °F 44.1 °F 47% 30.01 in 10.0 mi East 5.8 mph - N/A   Clear
4:53 AM 64.9 °F 44.1 °F 47% 30.01 in 10.0 mi East 10.4 mph - N/A   Clear
5:53 AM 64.9 °F 46.0 °F 50% 30.03 in 10.0 mi South 6.9 mph - N/A   Clear
6:53 AM 69.1 °F 46.9 °F 45% 30.05 in 10.0 mi Calm Calm - N/A   Clear
7:53 AM 72.0 °F 45.0 °F 38% 30.06 in 10.0 mi South 5.8 mph - N/A   Clear
8:53 AM 75.9 °F 45.0 °F 33% 30.07 in 10.0 mi Calm Calm - N/A   Clear
9:53 AM 79.0 °F 44.1 °F 29% 30.07 in 10.0 mi South 4.6 mph - N/A   Clear
10:53 AM 84.0 °F 43.0 °F 24% 30.05 in 10.0 mi NNW 4.6 mph - N/A   Clear
11:53 AM 88.0 °F 44.1 °F 22% 30.03 in 10.0 mi West 5.8 mph - N/A   Clear
12:53 PM 91.0 °F 42.1 °F 18% 30.01 in 10.0 mi Variable 4.6 mph - N/A   Clear
1:53 PM 93.0 °F 41.0 °F 16% 29.99 in 10.0 mi SW 8.1 mph - N/A   Clear
2:53 PM 93.9 °F 39.9 °F 15% 29.98 in 10.0 mi Calm Calm - N/A   Clear
3:53 PM 95.0 °F 36.0 °F 13% 29.96 in 10.0 mi South 5.8 mph - N/A   Clear
4:53 PM 96.1 °F 33.1 °F 11% 29.94 in 10.0 mi South 6.9 mph - N/A   Clear
5:53 PM 97.0 °F 30.9 °F 10% 29.92 in 10.0 mi NW 6.9 mph - N/A   Clear
6:53 PM 96.1 °F 35.1 °F 12% 29.90 in 10.0 mi WNW 11.5 mph - N/A   Clear
7:53 PM 91.0 °F 39.0 °F 16% 29.91 in 10.0 mi WNW 3.5 mph - N/A   Clear
8:53 PM 84.0 °F 43.0 °F 24% 29.91 in 10.0 mi ESE 4.6 mph - N/A   Clear
9:53 PM 78.1 °F 45.0 °F 31% 29.92 in 10.0 mi ESE 6.9 mph - N/A   Clear
10:53 PM 73.0 °F 46.0 °F 38% 29.91 in 10.0 mi East 11.5 mph - N/A   Clear
11:53 PM 73.9 °F 44.1 °F 34% 29.91 in 10.0 mi East 8.1 mph - N/A   Clear